Location: Axtheid
(49.6213°N, 11.8205°E)
Time: 15:49:32
(UTC+00:00)

Daily predictions for brighter satellites

Satellite Brightness Start Highest point End
(mag) Time Altitude Azimuth Time Altitude Azimuth Time Altitude Azimuth
NOAA 11 4.2 16:22:23 10° SSE 16:27:49 67° ENE 16:33:18 10° N
Cosmos 1634 Rocket 4.4 16:21:44 10° NNW 16:27:59 73° W 16:34:14 10° S
Okean O Rocket 1.6 16:25:19 10° SSE 16:29:42 64° ENE 16:34:06 10° N
FengYun 1-2 T 4.3 16:24:24 10° SSE 16:29:55 67° ENE 16:35:32 10° N
SL-14 R/B 3.6 16:27:06 10° SSW 16:30:58 69° WNW 16:34:55 10° N
NOSS 3-1 (C) 4.2 16:24:14 10° NW 16:31:07 50° NE 16:39:11 10° ESE
Landsat 5 3.2 16:27:54 10° NNE 16:31:49 74° ESE 16:35:39 10° S
YAOGAN 1 4.0 16:29:16 10° ESE 16:32:09 18° ENE 16:35:03 10° NNE
Cosmos 1892 Rocket 3.8 16:28:08 10° SSE 16:32:18 48° E 16:36:29 10° NNE
Cosmos 1777 Rocket 4.1 16:27:59 10° SSW 16:33:12 70° ESE 16:38:30 10° NNE
Cosmos 1538 Rocket 4.0 16:28:17 10° NNW 16:33:30 85° ENE 16:38:41 10° SSE
Okean-O 3.9 16:31:09 10° ESE 16:34:21 20° ENE 16:37:32 10° NNE
Envisat 4.2 16:30:49 10° S 16:35:42 48° W 16:40:38 10° NNW
CZ-2C R/B 3.8 16:30:54 10° SE 16:35:51 37° ENE 16:41:00 10° N
YAOGAN 6 4.1 16:34:01 10° S 16:37:24 41° W 16:40:53 10° NNW
SJ 16-02 2.1 16:34:23 10° SSE 16:38:20 33° ESE 16:42:17 10° NE
Aureole 2 Rocket 2.3 16:40:41 10° S 16:43:38 49° ESE 16:46:40 10° NNE
COSMOS 2406 4.2 16:40:40 10° NNW 16:45:35 27° NE 16:50:27 10° ESE
Cosmos 1833 Rocket 3.7 16:42:56 10° NNW 16:47:33 25° NE 16:52:07 10° E
Cosmos 44 4.5 16:43:44 10° SSE 16:47:37 25° ESE 16:51:23 11° ENE
Cosmos 1626 4.0 16:45:22 10° SW 16:48:42 31° WNW 16:52:03 10° N
SKYMED 2 4.3 16:44:56 10° NNE 16:48:51 32° E 16:52:45 10° SSE
USA 229 DEB 4.2 16:43:25 10° NW 16:50:19 48° NE 16:57:38 10° ESE
USA 229 4.2 16:43:31 10° NW 16:50:25 48° NE 16:57:43 10° ESE
CZ-4B R/B 2.2 16:48:32 10° NNE 16:51:34 31° E 16:54:30 10° SSE
Meteor 2-5 Rocket 4.3 16:47:04 10° SSW 16:52:32 59° WNW 16:58:01 10° N
Cosmos 1703 4.5 16:50:01 10° SE 16:53:01 22° E 16:56:01 10° NE
Aureole 1 4.1 16:50:22 10° NNW 16:53:21 57° ENE 16:56:27 10° SE
X-37B 2.1 16:51:42 10° SW 16:54:30 28° SSE 16:57:10 11° ESE
Meteor 2-10 Rocket 3.6 16:50:04 10° NNW 16:55:36 88° ENE 17:00:51 10° S
Cosmos 2082 Rocket 3.6 16:53:58 10° N 16:58:08 20° NE 17:01:10 14° ENE
Cosmos 1844 4.0 16:53:38 10° S 16:59:03 49° ESE 17:04:35 10° NE
NOSS 3-1 (A) 4.2 16:58:57 10° NW 17:05:53 51° NE 17:14:01 10° ESE
Cosmos 2058 Rocket 3.3 17:01:47 10° NNW 17:06:18 78° W 17:10:47 10° S
MOS 1 Rocket 3.6 17:02:17 10° NNE 17:06:18 37° E 17:10:17 10° SSE
SeaSat 1 4.0 17:02:56 10° NNE 17:07:14 30° NW 17:11:30 10° WSW
CSL-04 DEB 4.4 17:03:06 10° NNE 17:07:16 62° ESE 17:11:17 10° S
Cosmos 1844 Rocket 2.7 17:02:30 10° SSW 17:08:07 69° ESE 17:13:45 10° NNE
Cosmos 158 Rocket 4.0 17:03:25 10° NNW 17:08:48 85° ENE 17:14:12 10° SSE
Nadezhda 4 Rocket 4.0 17:03:26 10° S 17:09:35 65° E 17:15:42 10° NNE
H-2A R/B 4.3 17:06:06 10° SSW 17:09:52 35° W 17:13:49 10° NNW
Meteor 1-24 Rocket 4.4 17:05:07 10° SSW 17:10:18 52° WNW 17:15:30 10° N
ATLAS 2AS CENTAUR R/B 4.0 17:05:22 10° W 17:12:35 37° NNW 17:19:29 10° NE
Cosmos 1689 Rocket 3.9 17:15:07 16° ESE 17:15:07 16° ESE 17:16:14 10° SE
Aureole 3 2.6 17:12:40 10° N 17:16:01 75° E 17:19:01 10° SSE
Helios 1A Rocket 3.5 17:14:32 10° SE 17:18:17 34° ENE 17:22:03 10° N
Cosmos 1626 Rocket 3.6 17:17:32 10° S 17:21:49 55° E 17:26:10 10° NNE
Cosmos 2278 Rocket 3.3 17:23:51 10° SSE 17:28:00 21° E 17:28:30 21° E
Cosmos 405 3.6 17:24:46 10° N 17:28:02 33° ENE 17:29:22 25° ESE
ATLAS 5 CENTAUR R/B 3.3 17:26:26 10° W 17:30:03 25° NNW 17:33:39 12° NNE
Okean 1-7 Rocket 4.0 17:25:34 10° SSW 17:30:06 69° WNW 17:34:42 10° N
Cosmos 1328 4.2 17:27:19 10° SSE 17:31:05 41° E 17:33:29 19° NNE
USA 290 4.1 17:29:04 10° N 17:30:16 17° NNE 17:30:16 17° NNE
CSL-04 Rocket 4.0 17:26:36 10° SE 17:31:41 43° ENE 17:36:52 10° N
Iridium 4 Rocket 3.7 17:27:23 10° N 17:32:52 51° E 17:37:53 10° SSE
USA 234 3.7 17:29:30 20° ENE 17:33:45 48° N 17:39:59 10° WNW
Lacrosse 5 3.5 17:30:10 10° WNW 17:34:42 34° SW 17:39:12 10° SSE
Cosmos 923 Rocket 4.4 17:29:33 10° NNW 17:34:53 67° WSW 17:40:08 10° S
COSMO-SKYMED 1 2.5 17:32:43 10° NNE 17:37:06 87° WNW 17:41:27 10° SSW
Cosmos 1939 Rocket 4.2 17:34:08 10° S 17:38:04 44° W 17:41:59 10° NNW
Cosmos 1898 Rocket 3.6 17:34:36 10° S 17:39:42 53° ESE 17:43:16 19° NE
Cosmos 1680 Rocket 3.6 17:35:30 10° NNW 17:40:45 77° WSW 17:45:57 10° SSE
CZ-4C R/B 3.9 17:37:35 10° WNW 17:42:21 25° N 17:46:31 15° NE
Aureole 3 Rocket 2.4 17:39:54 10° N 17:42:55 52° ENE 17:46:21 10° SSE
Meteor 2-8 Rocket 4.3 17:38:55 10° N 17:45:02 75° ENE 17:51:09 10° SSE
Cosmos 2026 Rocket 4.0 17:39:44 10° S 17:45:43 59° E 17:51:50 10° NNE
Cosmos 1758 Rocket 3.9 17:41:57 10° SSE 17:46:08 41° E 17:47:29 32° NE
Cosmos 1553 Rocket 4.2 17:40:03 10° N 17:46:14 47° ENE 17:52:19 10° SSE
CZ-2D R/B 4.3 17:44:56 10° S 17:48:40 48° W 17:52:24 10° NNW
ISS -3.8 17:45:30 10° WSW 17:48:54 80° NNW 17:49:25 60° ENE
NOSS 2-1 (E) 3.1 17:46:39 10° SSW 17:49:49 48° SE 17:49:49 48° SE
ERS-2 1.9 17:50:25 25° NNE 17:52:26 83° ESE 17:56:04 10° SSW
H-2A R/B 1.9 17:47:56 10° SSE 17:52:57 85° ENE 17:58:10 10° NNW
Cosmos 1340 2.5 17:49:37 10° S 17:53:21 73° E 17:54:46 36° NNE
Cosmos 1455 3.9 17:50:29 10° NNW 17:54:00 36° W 17:57:32 10° SSW
Meteor 1-21 Rocket 4.4 17:49:21 10° SSW 17:54:52 74° WNW 18:00:29 10° N
Cosmos 2098 Rocket 4.3 17:48:23 10° S 17:55:33 62° E 18:02:44 10° NNE
Cosmos-2242 3.0 17:52:00 10° N 17:56:14 56° ENE 17:59:05 20° SSE
CZ-4 R/B 1.7 17:54:34 10° S 17:58:38 65° W 18:02:37 10° NNW
Cosmos 2263 Rocket 4.3 17:56:27 10° W 18:00:30 20° NW 18:04:34 10° N
H-2A R/B 4.3 17:58:01 10° N 18:01:36 24° WNW 18:05:07 10° WSW
ARGOS 3.0 17:58:15 10° SSE 18:03:36 77° ENE 18:09:00 10° NNW
Cosmos 1602 Rocket 3.6 17:59:17 10° SSW 18:03:37 77° WNW 18:08:02 10° N
COSMOS 2455 4.0 18:00:50 10° WSW 18:06:29 40° NW 18:11:09 15° NNE
USA 281 4.3 18:07:21 23° NE 18:07:21 23° NE 18:12:17 10° N
YAOGAN 1 3.0 18:03:31 10° S 18:07:49 64° WSW 18:12:08 10° NNW
Cosmos 1937 Rocket 3.4 18:03:23 10° S 18:08:38 68° ESE 18:10:47 36° NE
PSLV R/B 4.0 18:06:05 18° N 18:09:15 79° WNW 18:13:27 10° SSW
Cosmos 1818 4.3 18:04:22 10° WSW 18:09:39 49° NW 18:12:52 23° NNE
S3M 4.1 18:04:27 10° N 18:10:23 48° ENE 18:12:25 36° ESE
Okean-O 3.2 18:06:03 10° S 18:10:26 58° WSW 18:14:50 10° NNW
CZ-2C R/B 2.9 18:10:30 44° ENE 18:11:27 48° E 18:16:51 10° S
Cosmos 2344 4.3 18:03:46 10° NW 18:12:55 89° NE 18:25:44 10° SE
Meteor 2-15 Rocket 4.3 18:09:09 10° N 18:15:19 72° ENE 18:21:28 10° SSE
CZ-2C R/B 4.5 18:10:32 10° SSW 18:15:38 41° W 18:21:00 10° NNW
SJ 16-02 3.0 18:12:57 10° WSW 18:16:54 31° WNW 18:20:34 12° N
Meteor 1-27 4.0 18:13:41 10° N 18:19:19 71° ENE 18:23:15 20° SSE
Cosmos 1825 Rocket 4.3 18:15:38 10° S 18:18:30 39° SSE 18:18:30 39° SSE
CZ-4B R/B 4.0 18:21:04 10° NNW 18:23:35 20° WNW 18:26:03 10° WSW
SAR-Lupe-4 4.4 18:24:42 45° NW 18:25:15 50° WNW 18:28:43 10° SSW
CSL-04 Debris 4.3 18:20:14 10° S 18:25:37 73° WSW 18:31:02 10° NNW
Cosmos 44 3.7 18:23:37 10° SW 18:28:27 63° NW 18:29:51 44° NNE
COSMOS 2406 3.4 18:24:40 10° NNW 18:30:27 71° WSW 18:34:24 21° SSE
X-37B 2.8 18:27:48 10° WSW 18:29:27 24° SW 18:29:27 24° SW
Cosmos 1833 Rocket 2.7 18:26:28 10° NNW 18:32:06 78° WSW 18:34:40 34° SSE
SL-08 RB Rocket 3.6 18:32:25 68° S 18:32:56 81° WSW 18:37:28 10° NNW
USA 267 4.4 18:41:52 26° SSE 18:41:52 26° SSE 18:45:36 10° S
USA 229 DEB 4.3 18:34:27 10° NW 18:41:37 61° SW 18:47:27 18° SSE
USA 229 4.3 18:34:33 10° NW 18:41:43 62° SW 18:47:25 19° SSE
Cosmos 2082 Rocket 2.1 18:37:28 10° NNW 18:43:03 76° NE 18:43:03 76° NE
Cosmos 1844 Rocket 4.5 18:47:44 10° WSW 18:52:31 27° NW 18:56:01 16° N
NOSS 3-1 (A) 4.5 18:49:50 10° NW 18:57:12 60° SW 19:02:46 23° SSE
Ariane Rocket 4.5 19:00:51 27° N 19:00:51 27° N 19:03:09 10° NNW
ATLAS 2AS CENTAUR R/B 4.1 18:59:12 10° NW 19:05:46 28° N 19:06:55 27° NNE
Cosmos 2278 Rocket 2.6 19:05:50 10° SW 19:10:25 57° WSW 19:10:25 57° WSW
USA 234 3.3 19:16:51 67° N 19:16:51 67° N 19:22:51 10° WNW
ATLAS 5 CENTAUR R/B 4.1 19:13:13 10° NW 19:15:11 16° NNW 19:15:11 16° NNW
CZ-4C R/B 4.1 19:27:32 10° NW 19:31:42 26° N 19:31:42 26° N
USA 281 4.4 19:54:13 33° NNW 19:54:13 33° NNW 19:57:34 10° NNW
CZ-2C R/B 4.3 19:51:59 32° WNW 19:51:59 32° WNW 19:56:28 10° WSW
